Home > Weather > Kristiansand > Past weeks

Flag for Norway Weather for the Past 2 Weeks in Kristiansand, Norway

Now
50 °F

Partly sunny.


Feels Like: 45 °F
Forecast: 42 / 53 °F
Wind: 13 mph from South

Location: Kristiansand / Kjevik

Current Time: May 2, 2016 at 2:57:30 PM

Latest Report: May 2, 2016 at 2:20 PM


Visibility: N/A

Pressure: 30.15 "Hg

Humidity: 67%

Dew Point: 39 °F

Location of KristiansandLocation

Historic Weather in Kristiansand — Graph

°F

Kristiansand Temperature Yesterday

Maximum temperature yesterday: 50 °F (at 10:50 AM)
Minimum temperature yesterday: 32 °F (at 6:20 AM)
Average temperature yesterday: 43 °F

High & Low Weather Summary for the Past Weeks

 TemperatureHumidityPressure
High59 °F (Apr 20, 3:50 PM)100% (Apr 29, 2:20 AM)30.30 "Hg (Apr 29, 2:20 AM)
Low28 °F (Apr 29, 3:50 AM)23% (Apr 22, 7:20 PM)29.53 "Hg (Apr 17, 1:20 PM)
Average43 °F68%29.88 "Hg
* Reported Apr 17 1:20 PM — May 2 1:50 PM, Kristiansand, Weather by CustomWeather, © 2016

Note: Actual official high and low records may vary slightly from our data, if they occured in-between our weather recording intervals... More about our weather records

Advertising

Kristiansand Weather History for the Previous 24 Hours

Scroll right to see more
 ConditionsComfort  
Time TempWeatherWind HumidityBarometerVisibility
1:50 PM
Mon, May 2
48 °FPartly sunny.9 mph71%30.15 "HgN/A
1:20 PM48 °FPartly sunny.12 mph66%30.15 "HgN/A
12:50 PM48 °FPartly sunny.10 mph66%30.15 "HgN/A
12:20 PM50 °FPartly sunny.9 mph62%30.18 "HgN/A
11:50 AM48 °FPartly sunny.10 mph71%30.18 "HgN/A
11:20 AM48 °FPartly sunny.7 mph71%30.18 "HgN/A
10:50 AM46 °FBroken clouds.9 mph82%30.18 "HgN/A
10:20 AM46 °FPartly sunny.8 mph82%30.18 "HgN/A
9:50 AM46 °FBroken clouds.8 mph82%30.18 "HgN/A
9:20 AM46 °FBroken clouds.7 mph82%30.18 "HgN/A
8:50 AM45 °FPartly sunny.9 mph87%30.21 "HgN/A
8:20 AM45 °FPartly sunny.6 mph87%30.21 "HgN/A
6:50 AM45 °FPartly sunny.5 mph87%30.21 "HgN/A
5:50 AM39 °FMostly cloudy.7 mph93%30.21 "HgN/A
5:20 AM37 °FMostly cloudy.7 mph100%30.24 "HgN/A
4:50 AM37 °FMostly cloudy.8 mph100%30.24 "HgN/A
4:20 AM37 °FPassing clouds.7 mph93%30.24 "HgN/A
3:50 AM39 °FOvercast.7 mph93%30.24 "HgN/A
3:20 AM37 °FPassing clouds.6 mph100%30.24 "HgN/A
2:50 AM39 °FPassing clouds.5 mph93%30.27 "HgN/A
2:20 AM41 °FPassing clouds.No wind87%30.27 "HgN/A
1:50 AM45 °FMostly cloudy.7 mph81%30.27 "HgN/A
12:50 AM45 °FOvercast.9 mph81%30.30 "HgN/A
12:20 AM45 °FPassing clouds.10 mph76%30.30 "HgN/A
11:50 PM
Sun, May 1
45 °FClear.8 mph76%30.30 "Hg10 mi
10:50 PM45 °FClear.9 mph81%30.30 "Hg10 mi
10:20 PM45 °FClear.9 mph76%30.30 "Hg10 mi
9:50 PM45 °FSunny.10 mph76%30.30 "Hg10 mi
9:20 PM45 °FSunny.12 mph76%30.30 "Hg10 mi
8:50 PM45 °FPartly sunny.12 mph76%30.30 "HgN/A
8:20 PM46 °FPartly sunny.9 mph66%30.30 "HgN/A
7:50 PM46 °FPartly sunny.13 mph66%30.30 "HgN/A
7:20 PM46 °FPartly sunny.10 mph66%30.30 "HgN/A
6:50 PM46 °FPartly sunny.12 mph71%30.30 "HgN/A
6:20 PM46 °FPartly sunny.13 mph66%30.30 "HgN/A
5:50 PM46 °FPartly sunny.13 mph62%30.30 "HgN/A
5:20 PM48 °FPartly sunny.13 mph50%30.30 "HgN/A
4:50 PM48 °FPassing clouds.14 mph58%30.30 "HgN/A
4:20 PM48 °FScattered clouds.15 mph58%30.30 "HgN/A
3:50 PM48 °FScattered clouds.15 mph62%30.30 "HgN/A
3:20 PM48 °FPassing clouds.17 mph62%30.30 "HgN/A
2:50 PM48 °FScattered clouds.17 mph66%30.30 "HgN/A
2:20 PM48 °FScattered clouds.20 mph66%30.30 "HgN/A
Weather by CustomWeather, © 2016

See weather overviewHow to use our weather pages